Valley City, ND

12:02 PM CST on November 20, 2019 (GMT -0600)
Valley City

Weather History for KBAC - August, 2019

Change the Weather History Date:

Tuesday, August 20, 2019

  Actual Average (WUND) Record (WUND)
Temperature  
Mean Temperature 68 °F -  
Max Temperature 73 °F - - (-1)
Min Temperature 64 °F - - (-1)
Cooling Degree Days 4    
Growing Degree Days 18 (Base 50)    
Moisture  
Dew Point 63 °F    
Average Humidity 82    
Maximum Humidity 100    
Minimum Humidity 50    
Precipitation  
Precipitation 0.00 in - - ()
Sea Level Pressure  
Sea Level Pressure 29.99 in    
Wind  
Wind Speed 9 mph ()    
Max Wind Speed 18 mph    
Max Gust Speed 28 mph    
Visibility 9.6 miles    
Events Thunderstorm    
Averages and records for this station are not official NWS values.
T = Trace of Precipitation, MM = Missing Value Source: Averaged Metar Reports

Daily Weather History Graph

Daily Weather History Graph

Search for Another Location

Airport or City:

Astronomy

Aug. 20, 2019 Rise Set
Actual Time 6:35 AM CDT 8:34 PM CDT
Civil Twilight 6:02 AM CDT 9:06 PM CDT
Nautical Twilight 5:22 AM CDT 9:47 PM CDT
Astronomical Twilight 4:37 AM CDT 10:31 PM CDT
Moon 11:05 PM CDT 11:31 AM CDT
Length of Visible Light 15h 04m
Length of Day
13h 58m
Waning Gibbous, 77% of the Moon is Illuminated
Aug 20
Waning Gibbous
Aug 23
Last Quarter
Aug 30
New
Sep 5
First Quarter
Sep 13
Full

Hourly Weather History & Observations

Time (CDT) Temp. Dew Point Humidity Pressure Visibility Wind Dir Wind Speed Gust Speed Precip Events Conditions
12:15 AM 69.8 °F 69.8 °F 100% 29.86 in 10.0 mi South 6.9 mph - N/A   Clear
12:35 AM 69.8 °F 69.8 °F 100% 29.86 in 10.0 mi South 9.2 mph - N/A   Clear
12:55 AM 69.8 °F 69.8 °F 100% 29.85 in 10.0 mi South 9.2 mph - N/A   Clear
1:15 AM 71.6 °F 71.6 °F 100% 29.86 in 10.0 mi SSW 11.5 mph - N/A   Clear
1:35 AM 69.8 °F 69.8 °F 100% 29.87 in 10.0 mi South 9.2 mph - N/A   Clear
1:55 AM 69.8 °F 69.8 °F 100% 29.88 in 10.0 mi SSW 6.9 mph - N/A   Partly Cloudy
2:15 AM 71.6 °F 71.6 °F 100% 29.88 in 10.0 mi South 5.8 mph - N/A Thunderstorm Mostly Cloudy
2:35 AM 71.6 °F 71.6 °F 100% 29.87 in 10.0 mi South 5.8 mph - N/A   Overcast
2:55 AM 71.6 °F 71.6 °F 100% 29.85 in 10.0 mi South 8.1 mph - N/A Thunderstorm Overcast
3:15 AM 71.6 °F 71.6 °F 100% 29.84 in 10.0 mi South 10.4 mph - N/A   Mostly Cloudy
3:35 AM 69.8 °F 69.8 °F 100% 29.84 in 10.0 mi South 10.4 mph - N/A Thunderstorm Scattered Clouds
3:55 AM 69.8 °F 69.8 °F 100% 29.83 in 10.0 mi SSW 11.5 mph - N/A   Mostly Cloudy
4:15 AM 69.8 °F 69.8 °F 100% 29.84 in 10.0 mi SSW 9.2 mph - N/A   Scattered Clouds
4:35 AM 69.8 °F 69.8 °F 100% 29.84 in 10.0 mi SSW 11.5 mph - N/A   Mostly Cloudy
4:55 AM 68.0 °F 68.0 °F 100% 29.84 in 10.0 mi SSW 9.2 mph - N/A   Scattered Clouds
5:15 AM 68.0 °F 68.0 °F 100% 29.84 in 10.0 mi SW 10.4 mph - N/A   Clear
5:35 AM 68.0 °F 68.0 °F 100% 29.85 in 10.0 mi WSW 5.8 mph - N/A   Clear
5:55 AM 68.0 °F 68.0 °F 100% 29.86 in 10.0 mi WNW 3.5 mph - N/A   Partly Cloudy
6:15 AM 68.0 °F 68.0 °F 100% 29.87 in 9.0 mi NNW 4.6 mph - N/A   Mostly Cloudy
6:35 AM 68.0 °F 68.0 °F 100% 29.88 in 9.0 mi NNW 5.8 mph - N/A   Overcast
6:55 AM 68.0 °F 68.0 °F 100% 29.88 in 7.0 mi NW 4.6 mph - N/A   Mostly Cloudy
7:15 AM 66.2 °F 66.2 °F 100% 29.88 in 2.0 mi NW 4.6 mph - N/A   Mostly Cloudy
7:35 AM 68.0 °F 68.0 °F 100% 29.90 in 4.0 mi NW 5.8 mph - N/A   Partly Cloudy
7:55 AM 68.0 °F 68.0 °F 100% 29.92 in 5.0 mi NNW 5.8 mph - N/A   Partly Cloudy
8:15 AM 66.2 °F 66.2 °F 100% 29.95 in 10.0 mi North 16.1 mph 21.9 mph N/A   Partly Cloudy
8:35 AM 66.2 °F 66.2 °F 100% 29.98 in 10.0 mi North 13.8 mph 23.0 mph N/A   Clear
8:55 AM 66.2 °F 64.4 °F 94% 30.01 in 10.0 mi North 13.8 mph 21.9 mph N/A   Scattered Clouds
9:15 AM 64.4 °F 62.6 °F 94% 30.03 in 10.0 mi North 13.8 mph 24.2 mph N/A   Mostly Cloudy
9:35 AM 64.4 °F 64.4 °F 100% 30.04 in 10.0 mi North 11.5 mph - N/A   Mostly Cloudy
9:55 AM 66.2 °F 62.6 °F 88% 30.05 in 10.0 mi North 11.5 mph 19.6 mph N/A   Partly Cloudy
10:15 AM 68.0 °F 62.6 °F 83% 30.06 in 10.0 mi North 13.8 mph - N/A   Clear
10:35 AM 68.0 °F 62.6 °F 83% 30.07 in 10.0 mi NNE 18.4 mph - N/A   Partly Cloudy
10:55 AM 69.8 °F 60.8 °F 73% 30.08 in 10.0 mi NNE 15.0 mph 27.6 mph N/A   Clear
11:15 AM 69.8 °F 60.8 °F 73% 30.08 in 10.0 mi North 15.0 mph 24.2 mph N/A   Clear
11:35 AM 69.8 °F 60.8 °F 73% 30.08 in 10.0 mi NNE 15.0 mph 21.9 mph N/A   Clear
11:55 AM 69.8 °F 62.6 °F 78% 30.08 in 10.0 mi North 13.8 mph - N/A   Clear
12:15 PM 69.8 °F 62.6 °F 78% 30.09 in 10.0 mi NNE 11.5 mph 19.6 mph N/A   Partly Cloudy
12:35 PM 69.8 °F 60.8 °F 73% 30.09 in 10.0 mi North 13.8 mph 20.7 mph N/A   Partly Cloudy
12:55 PM 71.6 °F 59.0 °F 64% 30.09 in 10.0 mi NNE 13.8 mph 20.7 mph N/A   Clear
1:15 PM 71.6 °F 57.2 °F 60% 30.10 in 10.0 mi North 15.0 mph 20.7 mph N/A   Clear
1:35 PM 71.6 °F 57.2 °F 60% 30.10 in 10.0 mi North 15.0 mph 20.7 mph N/A   Clear
1:55 PM 71.6 °F 57.2 °F 60% 30.10 in 10.0 mi NNE 11.5 mph 20.7 mph N/A   Clear
2:15 PM 71.6 °F 57.2 °F 60% 30.11 in 10.0 mi NNE 12.7 mph 19.6 mph N/A   Clear
2:35 PM 73.4 °F 57.2 °F 57% 30.11 in 10.0 mi NNE 13.8 mph - N/A   Clear
2:55 PM 73.4 °F 57.2 °F 57% 30.11 in 10.0 mi NNE 10.4 mph - N/A   Clear
3:15 PM 71.6 °F 55.4 °F 57% 30.11 in 10.0 mi NE 15.0 mph - N/A   Clear
3:35 PM 73.4 °F 57.2 °F 57% 30.11 in 10.0 mi North 8.1 mph 15.0 mph N/A   Clear
3:55 PM 73.4 °F 55.4 °F 53% 30.10 in 10.0 mi North 11.5 mph - N/A   Clear
4:15 PM 73.4 °F 55.4 °F 53% 30.10 in 10.0 mi NNE 10.4 mph - N/A   Clear
4:35 PM 73.4 °F 57.2 °F 57% 30.10 in 10.0 mi North 10.4 mph - N/A   Clear
4:55 PM 73.4 °F 53.6 °F 50% 30.11 in 10.0 mi North 9.2 mph - N/A   Clear
5:15 PM 73.4 °F 55.4 °F 53% 30.11 in 10.0 mi NNW 8.1 mph - N/A   Clear
5:35 PM 73.4 °F 55.4 °F 53% 30.11 in 10.0 mi North 8.1 mph - N/A   Clear
5:55 PM 73.4 °F 55.4 °F 53% 30.10 in 10.0 mi NNW 9.2 mph - N/A   Clear
6:15 PM 71.6 °F 53.6 °F 53% 30.11 in 10.0 mi North 6.9 mph 13.8 mph N/A   Clear
6:35 PM 71.6 °F 53.6 °F 53% 30.11 in 10.0 mi NW 9.2 mph - N/A   Clear